Find Yaogan 31 hao 04 zu 02 xing

NORAD ID: 47856 Int'l Des: 2021-020 Owner: ZLZB Country: CN Constellation: yaogan operational
LEO

リアルタイム位置

3D地球を読み込み中...

Yaogan 31 hao 04 zu 02 xingについて

説明を読み込み中...

次回通過

Passes for default location (London). Set your location on the main map for personalized predictions.

高度履歴

Loading altitude history...

軌道要素

1 47856U 21020C 26105.65251969 -.00000052 00000-0 58934-4 0 9993
2 47856 63.4050 59.4786 0169400 0.2917 359.8178 13.45443972249994
Epoch: Apr 15, 2026 • Age: 9 hours

現在のステータス

高度 965.8 km
速度 7.43 km/s
衛星直下点 -5.18°S, 156.52°W
打ち上げ日 Mar 13, 2021
運用期間 5 years
タイプ military

技術仕様

分類 Payload
質量 500.00 kg
乾燥質量 500.00 kg
総質量 500.00 kg
長さ 0.50 m
直径 0.50 m
スパン 1.00 m
形状 Box + 2 Pan
製造者 DFHZ
フェーズステータス In Orbit
所有者/国 ZLZB/CN

Most Searched